Weather History for KLEB - January, 2013

Change the Weather History Date:

Friday, January 18, 2013

  Actual Average Record
Temperature  
Mean Temperature 10 °F -  
Max Temperature 19 °F 27 °F 56 °F (1990)
Min Temperature 0 °F 5 °F -25 °F (1954)
Degree Days  
Heating Degree Days 56    
Moisture  
Dew Point -4 °F    
Average Humidity 55    
Maximum Humidity 77    
Minimum Humidity 30    
Precipitation  
Precipitation 0.00 in - - ()
Sea Level Pressure  
Sea Level Pressure 30.31 in    
Wind  
Wind Speed 5 mph (NNW)    
Max Wind Speed 13 mph    
Max Gust Speed 23 mph    
Visibility 10 miles    
Events      
Averages and records for this station are not official NWS values.
T = Trace of Precipitation, MM = Missing Value Source: NWS Daily Summary

Daily Weather History Graph

Daily Weather History Graph

Search for Another Location

Airport or City:

Trip Planner

Search our weather history database for the weather conditions in past years. The results will help you decide how hot, cold, wet, or windy it might be!

Date:

Astronomy

Jan. 18, 2013 Rise Set
Actual Time 7:17 AM EST 4:42 PM EST
Civil Twilight 6:46 AM EST 5:13 PM EST
Nautical Twilight 6:10 AM EST 5:49 PM EST
Astronomical Twilight 5:36 AM EST 6:23 PM EST
Moon 10:39 AM EST (1/18) No Moon Set
Length of Visible Light 10h 27m
Length of Day
9h 24m
Waxing Crescent, 47% of the Moon is Illuminated
Jan 18
Waxing Crescent
Jan 18
First Quarter
Jan 26
Full
Feb 3
Last Quarter
Feb 10
New

Hourly Weather History & Observations

Time (EST) Temp. Windchill Dew Point Humidity Pressure Visibility Wind Dir Wind Speed Gust Speed Precip Events Conditions
12:53 AM 12.9 °F 2.6 °F -0.9 °F 54% 30.14 in 10.0 mi NE 6.9 mph - N/A   Overcast
1:53 AM 12.0 °F -1.3 °F -0.9 °F 56% 30.14 in 10.0 mi NE 10.4 mph - N/A   Overcast
2:53 AM 10.9 °F 0.2 °F -2.0 °F 56% 30.19 in 10.0 mi NE 6.9 mph - N/A   Partly Cloudy
3:53 AM 8.1 °F 1.4 °F -2.9 °F 61% 30.20 in 10.0 mi NNE 3.5 mph - N/A   Mostly Cloudy
4:53 AM 5.0 °F -4.1 °F -7.1 °F 58% 30.23 in 10.0 mi North 4.6 mph - N/A   Clear
5:53 AM 3.0 °F -8.0 °F -8.0 °F 60% 30.25 in 10.0 mi NNE 5.8 mph - N/A   Clear
6:53 AM 1.9 °F - -9.0 °F 60% 30.30 in 10.0 mi Calm Calm - N/A   Clear
7:53 AM -0.9 °F - -8.0 °F 72% 30.34 in 10.0 mi Calm Calm - N/A   Clear
8:53 AM 6.1 °F - -5.1 °F 60% 30.36 in 10.0 mi Calm Calm - N/A   Clear
9:53 AM 9.0 °F - -9.0 °F 44% 30.37 in 10.0 mi Calm Calm - N/A   Clear
10:53 AM 12.0 °F - -9.9 °F 37% 30.36 in 10.0 mi Calm Calm - N/A   Clear
11:53 AM 16.0 °F 7.4 °F -8.0 °F 34% 30.33 in 10.0 mi WNW 5.8 mph - N/A   Clear
12:53 PM 18.0 °F 7.7 °F -6.0 °F 35% 30.32 in 10.0 mi WNW 8.1 mph 19.6 mph N/A   Clear
1:53 PM 19.0 °F 6.1 °F -6.0 °F 33% 30.35 in 10.0 mi West 12.7 mph 23.0 mph N/A   Clear
2:53 PM 19.9 °F 7.9 °F -7.1 °F 30% 30.36 in 10.0 mi WNW 11.5 mph 18.4 mph N/A   Clear
3:53 PM 19.9 °F 11.1 °F -7.1 °F 30% 30.35 in 10.0 mi West 6.9 mph - N/A   Clear
4:53 PM 16.0 °F - -5.1 °F 39% 30.37 in 10.0 mi Calm Calm - N/A   Clear
5:53 PM 9.0 °F - -0.9 °F 64% 30.39 in 10.0 mi Calm Calm - N/A   Clear
6:53 PM 10.9 °F - -2.0 °F 56% 30.40 in 10.0 mi Calm Calm - N/A   Clear
7:53 PM 8.1 °F - -0.9 °F 67% 30.40 in 10.0 mi Calm Calm - N/A   Clear
8:53 PM 8.1 °F - 1.0 °F 73% 30.39 in 10.0 mi Calm Calm - N/A   Clear
9:53 PM 8.1 °F - 1.9 °F 76% 30.37 in 10.0 mi Calm Calm - N/A   Mostly Cloudy
10:53 PM 9.0 °F - 3.0 °F 77% 30.34 in 10.0 mi Calm Calm - N/A   Mostly Cloudy
11:53 PM 10.9 °F - 5.0 °F 77% 30.31 in 9.0 mi Calm Calm - N/A   Overcast